Overview Statistics Trail Chart Weather Telemetry Raw packets
 

This is the latest recevied weather packets stored in our database for station/object KI5NYZ-13. If no packets are shown the sender has not sent any weather packets the latest 10 day(s).

<< 1 2 3 4 5 6 >>
Time Temp. Humidity Pressure Rain* Wind** Luminosity Snow
1788524407 21.11° C 62% 1010.4 hPa 0 mm - - -
1788522606 21.67° C 62% 1010 hPa 0 mm - - -
1788520805 22.22° C 60% 1009.6 hPa 0 mm - - -
1788519004 22.22° C 60% 1009.5 hPa 0 mm - - -
1788517203 22.78° C 60% 1009.2 hPa 0 mm - - -
1788515402 22.78° C 59% 1009 hPa 0 mm - - -
1788513602 23.33° C 57% 1008.7 hPa 0 mm - - -
1788511800 22.22° C 62% 1009.1 hPa 0 mm - - -
1788509999 23.89° C 53% 1008.6 hPa 0 mm - - -
1788508198 23.89° C 53% 1008.7 hPa 0 mm - - -
1788506397 23.33° C 55% 1009 hPa 0 mm - - -
1788504596 25° C 52% 1008.4 hPa 0 mm - - -
1788502796 26.67° C 48% 1007.8 hPa 0 mm - - -
1788500994 27.78° C 45% 1007.2 hPa 0 mm - - -
1788499193 26.67° C 49% 1007.5 hPa 0 mm - - -
1788497392 27.78° C 47% 1007.2 hPa 0 mm - - -
1788495591 28.33° C 45% 1007.1 hPa 0 mm - - -
1788493791 28.89° C 41% 1006.7 hPa 0 mm - - -
1788491989 28.89° C 40% 1006.3 hPa 0 mm - - -
1788490189 28.89° C 41% 1005.9 hPa 0 mm - - -
1788488387 28.89° C 39% 1005.6 hPa 0 mm - - -
1788486586 30° C 39% 1004.8 hPa 0 mm - - -
1788484785 31.11° C 37% 1004.6 hPa 0 mm - - -
1788482984 32.22° C 34% 1004.2 hPa 0 mm - - -
1788481183 32.78° C 33% 1003.9 hPa 0 mm - - -

* Rain latest hour (hover to see other rain measurements)
** Current wind speed in m/s (hover to see current wind gust speed)